Overview Statistics Trail Chart Weather Telemetry Raw packets
 

This is the latest recevied weather packets stored in our database for station/object KG5MMT-15. If no packets are shown the sender has not sent any weather packets the latest 10 day(s).

<< 23 24 25 26 27 28 29 >>
Time Temp. Humidity Pressure Rain* Wind** Luminosity Snow
1788538362 23.33° C 44% 0 hPa 0 mm - - -
1788538062 22.78° C 46% 0 hPa 0 mm - - -
1788537762 22.78° C 45% 0 hPa 0 mm - - -
1788537462 22.78° C 45% 0 hPa 0 mm - - -
1788537162 22.78° C 45% 0 hPa 0 mm - - -
1788536862 22.78° C 45% 0 hPa 0 mm - - -
1788536562 22.78° C 46% 0 hPa 0 mm - - -
1788536262 22.22° C 45% 0 hPa 0 mm - - -
1788535962 21.67° C 47% 0 hPa 0 mm - - -
1788535662 22.22° C 47% 0 hPa 0 mm - - -
1788535362 22.22° C 46% 0 hPa 0 mm - - -
1788535062 22.22° C 45% 0 hPa 0 mm - - -
1788534762 22.22° C 46% 0 hPa 0 mm - - -
1788534462 22.22° C 45% 0 hPa 0 mm - - -
1788534162 22.22° C 45% 0 hPa 0 mm - - -
1788533862 22.22° C 48% 0 hPa 0 mm - - -
1788533562 21.67° C 48% 0 hPa 0 mm - - -
1788533262 21.11° C 53% 0 hPa 0 mm - - -
1788532962 21.11° C 56% 0 hPa 0 mm - - -
1788532662 21.11° C 53% 0 hPa 0 mm - - -
1788532362 20.56° C 54% 0 hPa 0 mm - - -
1788532062 20.56° C 53% 0 hPa 0 mm - - -
1788531762 20° C 57% 0 hPa 0 mm - - -
1788531462 19.44° C 59% 0 hPa 0 mm - - -
1788531162 19.44° C 65% 0 hPa 0 mm - - -

* Rain latest hour (hover to see other rain measurements)
** Current wind speed in m/s (hover to see current wind gust speed)